Simultaneous Nadir Overpasses (SNOs) Predictions

Prediction of SNOs between GOES-15 and METOP-A Satellite Orbit:

Table of predicted SNOs for the next 14.0 days since TLE Epoch: 4/17/2015
Index Date Time (GOES-15) GOES-15 Lat,Lon METOP-A Lat,Lon Distance(km) Time Diff (sec)
1 04/17/2015 06:33:53 0.02,-135.15 -0.09,-135.57 48.00 80
2 04/19/2015 18:32:04 -0.02,-135.23 -0.04,-135.14 9.95 80
3 04/22/2015 06:27:43 0.02,-135.28 0.15,-134.74 61.53 80
4 04/23/2015 18:46:33 -0.03,-135.32 0.87,-139.30 454.22 80
5 04/24/2015 18:28:32 -0.03,-135.34 -0.23,-134.30 117.57 80
6 04/26/2015 06:47:32 0.04,-135.37 -0.74,-138.90 402.97 80
7 04/27/2015 06:24:11 0.03,-135.38 0.37,-133.91 168.38 80
8 04/28/2015 18:43:02 -0.04,-135.41 0.65,-138.46 348.20 80
9 04/29/2015 18:25:01
